Private Wetterstation Wechselburg
Wetterdaten: Freitag, 14.09.2012
Datum Zeit Temp. +2m Bodentemp. Temp.+5cm Temp. Wind Windchill X Diff Temp. Feuchte +2m Feuchte +5cm Sonnenschein Luftdruck Regen Wind Richtung Richtung Sonnenschein UV Taupunkt Windchill Windben
14.09.2012 00:00 6,7 C 20,2 C 8,3 C 6,6 C 6,4 C 0,0 C 88 % 89 % 0 % 1018,9 hPa 0,0 l/m 0,0 km/h (0 Bft) O-SO 112 0 min 0,0 UV-I 4,9 C 6,4 C 0,0 km/h (0 Bft)
14.09.2012 00:05 6,7 C 20,3 C 8,3 C 6,6 C 6,4 C 0,0 C 88 % 89 % 0 % 1018,9 hPa 0,0 l/m 0,0 km/h (0 Bft) O-NO 67 0 min 0,0 UV-I 4,9 C 6,4 C 0,0 km/h (0 Bft)
14.09.2012 00:10 6,7 C 20,3 C 8,2 C 6,6 C 6,4 C 0,0 C 88 % 89 % 0 % 1018,9 hPa 0,0 l/m 0,0 km/h (0 Bft) O-SO 112 0 min 0,0 UV-I 4,9 C 6,4 C 0,0 km/h (0 Bft)
14.09.2012 00:15 6,7 C 20,3 C 8,3 C 6,6 C 6,4 C 0,0 C 88 % 89 % 0 % 1018,9 hPa 0,0 l/m 0,0 km/h (0 Bft) O-SO 112 0 min 0,0 UV-I 4,9 C 6,4 C 0,0 km/h (0 Bft)
14.09.2012 00:20 6,6 C 20,3 C 8,3 C 6,5 C 6,4 C 0,0 C 88 % 89 % 0 % 1018,9 hPa 0,0 l/m 0,0 km/h (0 Bft) O-NO 67 0 min 0,0 UV-I 4,8 C 6,4 C 0,0 km/h (0 Bft)
14.09.2012 00:25 6,5 C 20,3 C 8,0 C 6,5 C 6,4 C 0,0 C 88 % 89 % 0 % 1018,9 hPa 0,0 l/m 0,0 km/h (0 Bft) O-NO 67 0 min 0,0 UV-I 4,7 C 6,4 C 0,0 km/h (0 Bft)
14.09.2012 00:30 6,4 C 20,3 C 8,0 C 6,4 C 6,4 C 0,0 C 88 % 89 % 0 % 1018,9 hPa 0,0 l/m 0,0 km/h (0 Bft) O-NO 67 0 min 0,0 UV-I 4,6 C 6,4 C 0,0 km/h (0 Bft)
14.09.2012 00:35 6,5 C 20,3 C 8,1 C 6,5 C 6,4 C 0,0 C 88 % 89 % 0 % 1018,9 hPa 0,0 l/m 0,0 km/h (0 Bft) NO 45 0 min 0,0 UV-I 4,7 C 6,4 C 0,0 km/h (0 Bft)
14.09.2012 00:41 6,4 C 20,3 C 8,0 C 6,4 C 6,3 C 0,0 C 88 % 89 % 0 % 1018,9 hPa 0,0 l/m 0,0 km/h (0 Bft) N 0 0 min 0,0 UV-I 4,6 C 6,3 C 0,0 km/h (0 Bft)
14.09.2012 00:55 6,4 C 20,3 C 8,0 C 6,3 C 6,1 C 0,0 C 88 % 89 % 0 % 1019,2 hPa 0,0 l/m 0,0 km/h (0 Bft) O 90 0 min 0,0 UV-I 4,6 C 6,1 C 0,0 km/h (0 Bft)
14.09.2012 01:00 6,3 C 20,3 C 7,9 C 6,3 C 6,2 C 0,0 C 88 % 89 % 0 % 1019,2 hPa 0,0 l/m 0,0 km/h (0 Bft) O-NO 67 0 min 0,0 UV-I 4,5 C 6,2 C 0,0 km/h (0 Bft)
14.09.2012 01:05 6,3 C 20,2 C 7,8 C 6,3 C 6,2 C 0,0 C 88 % 89 % 0 % 1018,6 hPa 0,0 l/m 0,0 km/h (0 Bft) O 90 0 min 0,0 UV-I 4,5 C 6,2 C 0,0 km/h (0 Bft)
14.09.2012 01:10 6,2 C 20,2 C 7,8 C 6,2 C 6,1 C 0,0 C 88 % 89 % 0 % 1018,6 hPa 0,0 l/m 0,0 km/h (0 Bft) O-NO 67 0 min 0,0 UV-I 4,4 C 6,1 C 0,0 km/h (0 Bft)
14.09.2012 01:15 6,3 C 20,2 C 7,7 C 6,2 C 6,0 C 0,0 C 88 % 89 % 0 % 1018,6 hPa 0,0 l/m 0,0 km/h (0 Bft) N-NW 337 0 min 0,0 UV-I 4,5 C 6,0 C 0,0 km/h (0 Bft)
14.09.2012 01:20 6,1 C 20,2 C 7,7 C 6,0 C 5,9 C 0,0 C 88 % 89 % 0 % 1018,6 hPa 0,0 l/m 0,0 km/h (0 Bft) W-SW 247 0 min 0,0 UV-I 4,3 C 5,9 C 0,0 km/h (0 Bft)
14.09.2012 01:25 6,0 C 20,2 C 7,5 C 5,9 C 5,6 C 0,0 C 88 % 89 % 0 % 1018,6 hPa 0,0 l/m 0,0 km/h (0 Bft) S-SO 157 0 min 0,0 UV-I 4,2 C 5,6 C 0,0 km/h (0 Bft)
14.09.2012 01:30 5,9 C 20,2 C 7,5 C 5,8 C 5,6 C 0,0 C 88 % 89 % 0 % 1018,6 hPa 0,0 l/m 0,0 km/h (0 Bft) O-NO 67 0 min 0,0 UV-I 4,1 C 5,6 C 0,0 km/h (0 Bft)
14.09.2012 01:35 5,9 C 20,2 C 7,4 C 5,8 C 5,6 C 0,0 C 88 % 89 % 0 % 1018,6 hPa 0,0 l/m 0,0 km/h (0 Bft) O-NO 67 0 min 0,0 UV-I 4,1 C 5,6 C 0,0 km/h (0 Bft)
14.09.2012 01:40 5,9 C 20,1 C 7,5 C 5,8 C 5,6 C 0,0 C 88 % 90 % 0 % 1018,6 hPa 0,0 l/m 0,0 km/h (0 Bft) O 90 0 min 0,0 UV-I 4,1 C 5,6 C 0,0 km/h (0 Bft)
14.09.2012 01:45 5,9 C 20,1 C 7,3 C 5,8 C 5,6 C 0,0 C 88 % 89 % 0 % 1018,5 hPa 0,0 l/m 0,0 km/h (0 Bft) NO 45 0 min 0,0 UV-I 4,1 C 5,6 C 0,0 km/h (0 Bft)
14.09.2012 01:50 5,7 C 20,1 C 7,2 C 5,6 C 5,5 C 0,0 C 88 % 89 % 0 % 1018,5 hPa 0,0 l/m 0,0 km/h (0 Bft) NO 45 0 min 0,0 UV-I 3,9 C 5,5 C 0,0 km/h (0 Bft)
14.09.2012 01:55 5,6 C 20,1 C 7,2 C 5,5 C 5,2 C 0,0 C 88 % 89 % 0 % 1018,5 hPa 0,0 l/m 0,0 km/h (0 Bft) NO 45 0 min 0,0 UV-I 3,8 C 5,2 C 0,0 km/h (0 Bft)
14.09.2012 02:00 5,6 C 20,1 C 7,1 C 5,4 C 5,1 C 0,0 C 88 % 89 % 0 % 1018,5 hPa 0,0 l/m 0,0 km/h (0 Bft) NO 45 0 min 0,0 UV-I 3,8 C 5,1 C 0,0 km/h (0 Bft)
14.09.2012 02:05 5,5 C 20,1 C 7,1 C 5,4 C 5,1 C 0,0 C 88 % 90 % 0 % 1018,6 hPa 0,0 l/m 0,0 km/h (0 Bft) O-SO 112 0 min 0,0 UV-I 3,7 C 5,1 C 0,0 km/h (0 Bft)
14.09.2012 02:10 5,5 C 20,0 C 7,1 C 5,4 C 5,1 C 0,0 C 88 % 90 % 0 % 1018,6 hPa 0,0 l/m 0,0 km/h (0 Bft) O-SO 112 0 min 0,0 UV-I 3,7 C 5,1 C 0,0 km/h (0 Bft)
14.09.2012 02:15 5,3 C 20,1 C 7,1 C 5,2 C 5,1 C 0,0 C 88 % 90 % 0 % 1018,6 hPa 0,0 l/m 0,0 km/h (0 Bft) O-NO 67 0 min 0,0 UV-I 3,5 C 5,1 C 0,0 km/h (0 Bft)
14.09.2012 02:20 5,3 C 20,0 C 7,1 C 5,2 C 5,1 C 0,0 C 88 % 90 % 0 % 1018,6 hPa 0,0 l/m 0,0 km/h (0 Bft) O-NO 67 0 min 0,0 UV-I 3,5 C 5,1 C 0,0 km/h (0 Bft)
14.09.2012 02:25 5,2 C 20,0 C 7,1 C 5,2 C 5,1 C 0,0 C 88 % 90 % 0 % 1018,7 hPa 0,0 l/m 0,0 km/h (0 Bft) O-NO 67 0 min 0,0 UV-I 3,4 C 5,1 C 0,0 km/h (0 Bft)
14.09.2012 02:30 5,2 C 20,0 C 7,1 C 5,2 C 5,1 C 0,0 C 89 % 90 % 0 % 1018,7 hPa 0,0 l/m 0,0 km/h (0 Bft) O-NO 67 0 min 0,0 UV-I 3,5 C 5,1 C 0,0 km/h (0 Bft)
14.09.2012 02:35 5,2 C 20,0 C 7,0 C 5,2 C 5,1 C 0,0 C 89 % 90 % 0 % 1018,7 hPa 0,0 l/m 0,0 km/h (0 Bft) O-NO 67 0 min 0,0 UV-I 3,5 C 5,1 C 0,0 km/h (0 Bft)
14.09.2012 02:40 5,2 C 20,0 C 7,0 C 5,2 C 5,1 C 0,0 C 89 % 90 % 0 % 1018,7 hPa 0,0 l/m 0,0 km/h (0 Bft) N-NO 22 0 min 0,0 UV-I 3,5 C 5,1 C 0,0 km/h (0 Bft)
14.09.2012 02:45 5,2 C 20,0 C 6,9 C 5,1 C 4,9 C 0,0 C 89 % 90 % 0 % 1018,2 hPa 0,0 l/m 0,0 km/h (0 Bft) N-NO 22 0 min 0,0 UV-I 3,5 C 4,9 C 0,0 km/h (0 Bft)
14.09.2012 02:50 5,1 C 19,9 C 6,8 C 5,0 C 4,8 C 0,0 C 89 % 90 % 0 % 1018,2 hPa 0,0 l/m 0,0 km/h (0 Bft) N-NO 22 0 min 0,0 UV-I 3,4 C 4,8 C 0,0 km/h (0 Bft)
14.09.2012 02:55 5,1 C 19,9 C 6,7 C 5,0 C 4,7 C 0,0 C 89 % 90 % 0 % 1018,2 hPa 0,0 l/m 0,0 km/h (0 Bft) N-NO 22 0 min 0,0 UV-I 3,4 C 4,7 C 0,0 km/h (0 Bft)
14.09.2012 03:00 4,9 C 19,9 C 6,7 C 4,8 C 4,6 C 0,0 C 89 % 90 % 0 % 1018,2 hPa 0,0 l/m 0,0 km/h (0 Bft) N-NO 22 0 min 0,0 UV-I 3,2 C 4,6 C 0,0 km/h (0 Bft)
14.09.2012 03:05 4,9 C 19,9 C 6,7 C 4,8 C 4,6 C 0,0 C 89 % 90 % 0 % 1018,4 hPa 0,0 l/m 0,0 km/h (0 Bft) N-NO 22 0 min 0,0 UV-I 3,2 C 4,6 C 0,0 km/h (0 Bft)
14.09.2012 03:10 4,8 C 20,0 C 6,8 C 4,7 C 4,5 C 0,0 C 88 % 90 % 0 % 1018,4 hPa 0,0 l/m 0,0 km/h (0 Bft) NO 45 0 min 0,0 UV-I 3,0 C 4,5 C 0,0 km/h (0 Bft)
14.09.2012 03:15 4,9 C 19,9 C 6,7 C 4,8 C 4,7 C 0,0 C 89 % 90 % 0 % 1018,4 hPa 0,0 l/m 0,0 km/h (0 Bft) O-NO 67 0 min 0,0 UV-I 3,2 C 4,7 C 0,0 km/h (0 Bft)
14.09.2012 03:20 4,8 C 19,9 C 6,7 C 4,8 C 4,7 C 0,0 C 88 % 90 % 0 % 1018,4 hPa 0,0 l/m 0,0 km/h (0 Bft) N-NO 22 0 min 0,0 UV-I 3,0 C 4,7 C 0,0 km/h (0 Bft)
14.09.2012 03:25 4,8 C 19,9 C 6,7 C 4,7 C 4,5 C 0,0 C 88 % 90 % 0 % 1018,4 hPa 0,0 l/m 0,0 km/h (0 Bft) W 270 0 min 0,0 UV-I 3,0 C 4,5 C 0,0 km/h (0 Bft)
14.09.2012 03:30 4,8 C 19,8 C 6,7 C 4,7 C 4,5 C 0,0 C 88 % 90 % 0 % 1018,4 hPa 0,0 l/m 0,0 km/h (0 Bft) W 270 0 min 0,0 UV-I 3,0 C 4,5 C 0,0 km/h (0 Bft)
14.09.2012 03:35 4,7 C 19,8 C 6,7 C 4,7 C 4,6 C 0,0 C 88 % 90 % 0 % 1018,4 hPa 0,0 l/m 0,0 km/h (0 Bft) W-SW 247 0 min 0,0 UV-I 2,9 C 4,6 C 0,0 km/h (0 Bft)
14.09.2012 03:40 4,7 C 19,8 C 6,5 C 4,6 C 4,5 C 0,0 C 88 % 90 % 0 % 1018,4 hPa 0,0 l/m 0,0 km/h (0 Bft) W 270 0 min 0,0 UV-I 2,9 C 4,5 C 0,0 km/h (0 Bft)
14.09.2012 03:45 4,7 C 19,8 C 6,6 C 4,6 C 4,5 C 0,0 C 89 % 90 % 0 % 1018,2 hPa 0,0 l/m 0,0 km/h (0 Bft) O 90 0 min 0,0 UV-I 3,0 C 4,5 C 0,0 km/h (0 Bft)
14.09.2012 03:50 4,6 C 19,9 C 6,5 C 4,6 C 4,5 C 0,0 C 89 % 90 % 0 % 1018,2 hPa 0,0 l/m 0,0 km/h (0 Bft) O 90 0 min 0,0 UV-I 2,9 C 4,5 C 0,0 km/h (0 Bft)
14.09.2012 03:55 4,7 C 19,8 C 6,5 C 4,6 C 4,5 C 0,0 C 89 % 90 % 0 % 1018,2 hPa 0,0 l/m 0,0 km/h (0 Bft) O-SO 112 0 min 0,0 UV-I 3,0 C 4,5 C 0,0 km/h (0 Bft)
14.09.2012 04:00 4,7 C 19,8 C 6,5 C 4,6 C 4,4 C 0,0 C 89 % 90 % 0 % 1018,2 hPa 0,0 l/m 0,0 km/h (0 Bft) O-SO 112 0 min 0,0 UV-I 3,0 C 4,4 C 0,0 km/h (0 Bft)
14.09.2012 04:05 4,6 C 19,8 C 6,4 C 4,5 C 4,2 C 0,0 C 89 % 90 % 0 % 1018,2 hPa 0,0 l/m 0,0 km/h (0 Bft) O-SO 112 0 min 0,0 UV-I 2,9 C 4,2 C 0,0 km/h (0 Bft)
14.09.2012 04:10 4,7 C 19,8 C 6,4 C 4,5 C 4,2 C 0,0 C 89 % 90 % 0 % 1018,2 hPa 0,0 l/m 0,0 km/h (0 Bft) O-SO 112 0 min 0,0 UV-I 3,0 C 4,2 C 0,0 km/h (0 Bft)
14.09.2012 04:15 4,5 C 19,8 C 6,3 C 4,4 C 4,2 C 0,0 C 89 % 90 % 0 % 1018,2 hPa 0,0 l/m 0,0 km/h (0 Bft) W-SW 247 0 min 0,0 UV-I 2,8 C 4,2 C 0,0 km/h (0 Bft)
14.09.2012 04:20 4,4 C 19,7 C 6,3 C 4,3 C 4,2 C 0,0 C 89 % 90 % 0 % 1018,2 hPa 0,0 l/m 0,0 km/h (0 Bft) W-SW 247 0 min 0,0 UV-I 2,7 C 4,2 C 0,0 km/h (0 Bft)
14.09.2012 04:25 4,4 C 19,7 C 6,3 C 4,3 C 4,2 C 0,0 C 89 % 90 % 0 % 1018,2 hPa 0,0 l/m 0,0 km/h (0 Bft) W-SW 247 0 min 0,0 UV-I 2,7 C 4,2 C 0,0 km/h (0 Bft)
14.09.2012 04:30 4,3 C 19,7 C 6,1 C 4,2 C 4,1 C 0,0 C 89 % 90 % 0 % 1018,2 hPa 0,0 l/m 0,0 km/h (0 Bft) W-SW 247 0 min 0,0 UV-I 2,7 C 4,1 C 0,0 km/h (0 Bft)
14.09.2012 04:35 4,2 C 19,7 C 6,1 C 4,2 C 4,1 C 0,0 C 89 % 91 % 0 % 1018,2 hPa 0,0 l/m 0,0 km/h (0 Bft) O-NO 67 0 min 0,0 UV-I 2,6 C 4,1 C 0,0 km/h (0 Bft)
14.09.2012 04:40 4,3 C 19,7 C 6,2 C 4,3 C 4,3 C 0,0 C 89 % 91 % 0 % 1018,2 hPa 0,0 l/m 0,0 km/h (0 Bft) O-NO 67 0 min 0,0 UV-I 2,7 C 4,3 C 0,0 km/h (0 Bft)
14.09.2012 04:45 4,3 C 19,7 C 6,1 C 4,3 C 4,3 C 0,0 C 89 % 91 % 0 % 1018,4 hPa 0,0 l/m 0,0 km/h (0 Bft) O-NO 67 0 min 0,0 UV-I 2,7 C 4,3 C 0,0 km/h (0 Bft)
14.09.2012 04:50 4,2 C 19,7 C 6,0 C 4,2 C 4,1 C 0,0 C 89 % 91 % 0 % 1018,4 hPa 0,0 l/m 0,0 km/h (0 Bft) W-SW 247 0 min 0,0 UV-I 2,6 C 4,1 C 0,0 km/h (0 Bft)
14.09.2012 04:55 4,2 C 19,7 C 6,0 C 4,1 C 4,0 C 0,0 C 89 % 91 % 0 % 1018,4 hPa 0,0 l/m 0,0 km/h (0 Bft) W-SW 247 0 min 0,0 UV-I 2,6 C 4,0 C 0,0 km/h (0 Bft)
14.09.2012 05:00 4,1 C 19,7 C 6,0 C 4,0 C 3,8 C 0,0 C 89 % 91 % 0 % 1018,4 hPa 0,0 l/m 0,0 km/h (0 Bft) W-SW 247 0 min 0,0 UV-I 2,5 C 3,8 C 0,0 km/h (0 Bft)
14.09.2012 05:05 4,0 C 19,7 C 5,9 C 3,9 C 3,7 C 0,0 C 89 % 91 % 0 % 1018,4 hPa 0,0 l/m 0,0 km/h (0 Bft) W 270 0 min 0,0 UV-I 2,4 C 3,7 C 0,0 km/h (0 Bft)
14.09.2012 05:10 4,0 C 19,7 C 6,0 C 3,9 C 3,7 C 0,0 C 89 % 91 % 0 % 1018,4 hPa 0,0 l/m 0,0 km/h (0 Bft) W 270 0 min 0,0 UV-I 2,4 C 3,7 C 0,0 km/h (0 Bft)
14.09.2012 05:15 4,0 C 19,7 C 6,0 C 3,9 C 3,8 C 0,0 C 90 % 91 % 0 % 1018,4 hPa 0,0 l/m 0,0 km/h (0 Bft) W 270 0 min 0,0 UV-I 2,5 C 3,8 C 0,0 km/h (0 Bft)
14.09.2012 05:20 4,1 C 19,7 C 6,0 C 4,0 C 3,8 C 0,0 C 90 % 91 % 0 % 1018,4 hPa 0,0 l/m 0,0 km/h (0 Bft) SW 225 0 min 0,0 UV-I 2,6 C 3,8 C 0,0 km/h (0 Bft)
14.09.2012 05:25 4,0 C 19,6 C 5,9 C 3,9 C 3,7 C 0,0 C 90 % 91 % 0 % 1018,1 hPa 0,0 l/m 0,0 km/h (0 Bft) W-SW 247 0 min 0,0 UV-I 2,5 C 3,7 C 0,0 km/h (0 Bft)
14.09.2012 05:30 3,9 C 19,6 C 5,8 C 3,8 C 3,7 C 0,0 C 90 % 91 % 0 % 1018,1 hPa 0,0 l/m 0,0 km/h (0 Bft) W 270 0 min 0,0 UV-I 2,4 C 3,7 C 0,0 km/h (0 Bft)
14.09.2012 05:35 3,9 C 19,6 C 5,8 C 3,8 C 3,6 C 0,0 C 90 % 91 % 0 % 1018,1 hPa 0,0 l/m 0,0 km/h (0 Bft) O-SO 112 0 min 0,0 UV-I 2,4 C 3,6 C 0,0 km/h (0 Bft)
14.09.2012 05:40 3,9 C 19,6 C 5,9 C 3,9 C 3,8 C 0,0 C 90 % 91 % 0 % 1018,1 hPa 0,0 l/m 0,0 km/h (0 Bft) O-NO 67 0 min 0,0 UV-I 2,4 C 3,8 C 0,0 km/h (0 Bft)
14.09.2012 05:45 4,0 C 19,6 C 6,0 C 4,0 C 4,0 C 0,0 C 90 % 91 % 0 % 1018,0 hPa 0,0 l/m 0,0 km/h (0 Bft) O 90 0 min 0,0 UV-I 2,5 C 4,0 C 0,0 km/h (0 Bft)
14.09.2012 05:50 4,3 C 19,6 C 6,0 C 4,3 C 4,3 C 0,0 C 90 % 92 % 0 % 1018,0 hPa 0,0 l/m 0,0 km/h (0 Bft) O 90 0 min 0,0 UV-I 2,8 C 4,3 C 0,0 km/h (0 Bft)
14.09.2012 05:55 4,4 C 19,6 C 6,1 C 4,5 C 4,5 C 0,1 C 90 % 92 % 0 % 1018,0 hPa 0,0 l/m 0,0 km/h (0 Bft) O-NO 67 0 min 0,0 UV-I 2,9 C 4,5 C 0,0 km/h (0 Bft)
14.09.2012 06:00 4,4 C 19,6 C 6,1 C 4,6 C 4,6 C 0,2 C 90 % 92 % 0 % 1018,0 hPa 0,0 l/m 0,0 km/h (0 Bft) O-NO 67 0 min 0,0 UV-I 2,9 C 4,6 C 0,0 km/h (0 Bft)
14.09.2012 06:05 4,5 C 19,6 C 6,2 C 4,7 C 4,7 C 0,2 C 90 % 92 % 0 % 1018,5 hPa 0,0 l/m 0,0 km/h (0 Bft) O-NO 67 0 min 0,0 UV-I 3,0 C 4,7 C 0,0 km/h (0 Bft)
14.09.2012 06:10 4,6 C 19,6 C 6,3 C 4,8 C 4,8 C 0,2 C 90 % 92 % 0 % 1018,5 hPa 0,0 l/m 0,2 km/h (0 Bft) O-NO 67 0 min 0,0 UV-I 3,1 C 4,8 C 0,0 km/h (0 Bft)
14.09.2012 06:15 4,7 C 19,6 C 6,3 C 4,9 C 4,9 C 0,2 C 91 % 92 % 0 % 1018,5 hPa 0,0 l/m 0,2 km/h (0 Bft) O-NO 67 0 min 0,0 UV-I 3,4 C 4,9 C 0,0 km/h (0 Bft)
14.09.2012 06:20 4,6 C 19,6 C 6,3 C 4,8 C 4,8 C 0,2 C 90 % 92 % 0 % 1018,5 hPa 0,0 l/m 0,0 km/h (0 Bft) O-NO 67 0 min 0,0 UV-I 3,1 C 4,8 C 0,0 km/h (0 Bft)
14.09.2012 06:25 4,7 C 19,6 C 6,3 C 4,8 C 4,8 C 0,1 C 91 % 92 % 0 % 1018,1 hPa 0,0 l/m 0,0 km/h (0 Bft) O-NO 67 0 min 0,0 UV-I 3,4 C 4,8 C 0,0 km/h (0 Bft)
14.09.2012 06:30 4,7 C 19,5 C 6,3 C 4,7 C 4,7 C 0,0 C 91 % 92 % 0 % 1018,1 hPa 0,0 l/m 0,0 km/h (0 Bft) O-SO 112 0 min 0,0 UV-I 3,4 C 4,7 C 0,0 km/h (0 Bft)
14.09.2012 06:35 4,7 C 19,5 C 6,2 C 4,6 C 4,5 C 0,0 C 91 % 92 % 0 % 1018,1 hPa 0,0 l/m 0,0 km/h (0 Bft) O-SO 112 0 min 0,0 UV-I 3,4 C 4,5 C 0,0 km/h (0 Bft)
14.09.2012 06:41 4,5 C 19,5 C 6,1 C 4,4 C 4,2 C 0,0 C 90 % 91 % 0 % 1018,2 hPa 0,0 l/m 0,0 km/h (0 Bft) N 0 0 min 0,0 UV-I 3,0 C 4,2 C 0,0 km/h (0 Bft)
14.09.2012 06:55 4,3 C 19,5 C 5,9 C 4,2 C 4,0 C 0,0 C 90 % 91 % 0 % 1018,2 hPa 0,0 l/m 0,0 km/h (0 Bft) W 270 0 min 0,0 UV-I 2,8 C 4,0 C 0,0 km/h (0 Bft)
14.09.2012 07:00 4,2 C 19,5 C 5,9 C 4,1 C 4,0 C 0,0 C 90 % 91 % 0 % 1018,2 hPa 0,0 l/m 0,0 km/h (0 Bft) NW 315 0 min 0,0 UV-I 2,7 C 4,0 C 0,0 km/h (0 Bft)
14.09.2012 07:05 4,3 C 19,5 C 5,8 C 4,2 C 4,0 C 0,0 C 90 % 91 % 0 % 1018,1 hPa 0,0 l/m 0,0 km/h (0 Bft) N-NW 337 0 min 0,0 UV-I 2,8 C 4,0 C 0,0 km/h (0 Bft)
14.09.2012 07:10 4,3 C 19,5 C 5,7 C 4,3 C 4,2 C 0,0 C 90 % 91 % 0 % 1018,1 hPa 0,0 l/m 0,0 km/h (0 Bft) N-NW 337 0 min 0,0 UV-I 2,8 C 4,2 C 0,0 km/h (0 Bft)
14.09.2012 07:15 4,3 C 19,5 C 6,0 C 5,4 C 5,4 C 1,1 C 90 % 91 % 29 % 1018,1 hPa 0,0 l/m 0,0 km/h (0 Bft) O-NO 67 5 min 0,0 UV-I 2,8 C 5,4 C 0,0 km/h (0 Bft)
14.09.2012 07:20 4,5 C 19,5 C 6,0 C 6,0 C 6,0 C 1,5 C 90 % 92 % 39 % 1018,1 hPa 0,0 l/m 0,0 km/h (0 Bft) O-NO 67 5 min 0,0 UV-I 3,0 C 6,0 C 0,0 km/h (0 Bft)
14.09.2012 07:25 4,9 C 19,5 C 6,3 C 7,2 C 7,2 C 2,3 C 91 % 92 % 61 % 1018,6 hPa 0,0 l/m 0,0 km/h (0 Bft) N-NO 22 5 min 0,0 UV-I 3,6 C 7,2 C 0,0 km/h (0 Bft)
14.09.2012 07:30 5,2 C 19,4 C 6,4 C 8,1 C 8,1 C 2,9 C 91 % 92 % 76 % 1018,6 hPa 0,0 l/m 0,0 km/h (0 Bft) S-SO 157 5 min 0,0 UV-I 3,9 C 8,1 C 0,0 km/h (0 Bft)
14.09.2012 07:35 5,7 C 19,4 C 7,0 C 9,4 C 9,4 C 3,7 C 92 % 92 % 97 % 1018,6 hPa 0,0 l/m 0,0 km/h (0 Bft) SW 225 5 min 0,0 UV-I 4,5 C 9,4 C 0,0 km/h (0 Bft)
14.09.2012 07:40 6,2 C 19,4 C 7,4 C 10,5 C 10,5 C 4,3 C 92 % 92 % 100 % 1018,6 hPa 0,0 l/m 0,0 km/h (0 Bft) S 180 5 min 0,0 UV-I 5,0 C 10,5 C 0,0 km/h (0 Bft)
14.09.2012 07:45 6,9 C 19,4 C 7,9 C 11,9 C 11,9 C 5,0 C 92 % 92 % 100 % 1017,8 hPa 0,0 l/m 0,0 km/h (0 Bft) W 270 5 min 0,0 UV-I 5,7 C 11,9 C 0,0 km/h (0 Bft)
14.09.2012 07:50 7,4 C 19,4 C 7,7 C 12,7 C 12,7 C 5,3 C 93 % 91 % 100 % 1017,8 hPa 0,0 l/m 0,0 km/h (0 Bft) W-NW 292 5 min 0,0 UV-I 6,3 C 12,7 C 0,0 km/h (0 Bft)
14.09.2012 07:55 7,3 C 19,3 C 7,8 C 13,6 C 13,6 C 6,3 C 92 % 91 % 100 % 1017,8 hPa 0,0 l/m 0,0 km/h (0 Bft) W 270 5 min 0,0 UV-I 6,1 C 13,6 C 0,0 km/h (0 Bft)
14.09.2012 08:00 7,1 C 19,4 C 7,9 C 14,3 C 14,3 C 7,2 C 92 % 91 % 100 % 1017,8 hPa 0,0 l/m 0,0 km/h (0 Bft) W 270 5 min 0,0 UV-I 5,9 C 14,3 C 0,0 km/h (0 Bft)
14.09.2012 08:05 7,3 C 19,3 C 8,2 C 15,4 C 15,4 C 8,1 C 92 % 91 % 100 % 1017,5 hPa 0,0 l/m 0,0 km/h (0 Bft) SW 225 5 min 0,0 UV-I 6,1 C 15,4 C 0,0 km/h (0 Bft)
14.09.2012 08:10 7,6 C 19,3 C 8,4 C 16,0 C 16,0 C 8,4 C 92 % 91 % 100 % 1017,5 hPa 0,0 l/m 0,0 km/h (0 Bft) S-SO 157 5 min 0,0 UV-I 6,4 C 16,0 C 2,1 km/h (1 Bft)
14.09.2012 08:15 7,9 C 19,1 C 8,7 C 17,0 C 17,0 C 9,1 C 92 % 92 % 100 % 1017,5 hPa 0,0 l/m 0,3 km/h (0 Bft) S 180 5 min 0,0 UV-I 6,7 C 17,0 C 4,3 km/h (1 Bft)
14.09.2012 08:20 8,0 C 19,2 C 8,7 C 16,9 C 16,9 C 8,9 C 91 % 91 % 100 % 1017,5 hPa 0,0 l/m 0,6 km/h (0 Bft) SW 225 5 min 0,0 UV-I 6,6 C 16,9 C 3,9 km/h (1 Bft)
14.09.2012 08:25 8,4 C 19,1 C 8,9 C 16,7 C 16,7 C 8,3 C 91 % 91 % 100 % 1017,2 hPa 0,0 l/m 1,3 km/h (1 Bft) S 180 5 min 0,0 UV-I 7,0 C 16,7 C 3,1 km/h (1 Bft)
14.09.2012 08:30 8,6 C 19,1 C 9,1 C 15,1 C 15,1 C 6,5 C 91 % 91 % 100 % 1017,2 hPa 0,0 l/m 1,3 km/h (1 Bft) W 270 5 min 0,0 UV-I 7,2 C 15,1 C 2,3 km/h (1 Bft)
14.09.2012 08:35 8,7 C 19,0 C 9,2 C 13,2 C 13,2 C 4,5 C 89 % 91 % 100 % 1017,2 hPa 0,0 l/m 1,0 km/h (0 Bft) O-NO 67 5 min 0,0 UV-I 7,0 C 13,2 C 6,0 km/h (2 Bft)
14.09.2012 08:40 8,7 C 19,0 C 9,2 C 12,4 C 12,4 C 3,7 C 89 % 91 % 97 % 1017,2 hPa 0,0 l/m 0,8 km/h (0 Bft) SO 135 5 min 0,0 UV-I 7,0 C 12,4 C 1,8 km/h (1 Bft)
14.09.2012 08:45 8,8 C 19,0 C 9,5 C 11,7 C 11,7 C 2,9 C 89 % 91 % 76 % 1017,2 hPa 0,0 l/m 0,6 km/h (0 Bft) S 180 0 min 0,0 UV-I 7,1 C 11,7 C 2,3 km/h (1 Bft)
14.09.2012 08:50 8,9 C 19,0 C 9,7 C 11,5 C 11,5 C 2,6 C 88 % 90 % 68 % 1017,2 hPa 0,0 l/m 0,6 km/h (0 Bft) W-SW 247 0 min 0,1 UV-I 7,0 C 11,5 C 5,3 km/h (1 Bft)
14.09.2012 08:55 9,1 C 19,0 C 10,1 C 13,2 C 13,2 C 4,1 C 88 % 91 % 100 % 1017,2 hPa 0,0 l/m 0,8 km/h (0 Bft) SW 225 5 min 0,1 UV-I 7,2 C 13,2 C 1,8 km/h (1 Bft)
14.09.2012 09:00 9,5 C 18,9 C 10,3 C 14,0 C 14,0 C 4,5 C 88 % 90 % 100 % 1017,2 hPa 0,0 l/m 0,8 km/h (0 Bft) S 180 5 min 0,2 UV-I 7,6 C 14,0 C 1,8 km/h (1 Bft)
14.09.2012 09:05 9,9 C 18,9 C 10,5 C 14,0 C 14,0 C 4,1 C 86 % 89 % 100 % 1017,0 hPa 0,0 l/m 1,8 km/h (1 Bft) S-SW 202 5 min 0,2 UV-I 7,7 C 14,0 C 6,3 km/h (2 Bft)
14.09.2012 09:10 10,3 C 18,9 C 10,6 C 13,8 C 13,8 C 3,5 C 86 % 89 % 92 % 1017,0 hPa 0,0 l/m 1,8 km/h (1 Bft) S-SO 157 5 min 0,1 UV-I 8,1 C 13,8 C 2,3 km/h (1 Bft)
14.09.2012 09:15 10,5 C 18,9 C 10,8 C 13,6 C 13,6 C 3,1 C 83 % 88 % 82 % 1017,0 hPa 0,0 l/m 1,4 km/h (1 Bft) S-SO 157 0 min 0,1 UV-I 7,7 C 13,6 C 2,1 km/h (1 Bft)
14.09.2012 09:20 10,7 C 18,9 C 10,9 C 13,4 C 13,4 C 2,7 C 82 % 88 % 71 % 1017,0 hPa 0,0 l/m 1,6 km/h (1 Bft) W-NW 292 0 min 0,1 UV-I 7,8 C 13,4 C 2,1 km/h (1 Bft)
14.09.2012 09:25 11,1 C 18,8 C 11,1 C 13,3 C 13,3 C 2,2 C 80 % 86 % 58 % 1016,6 hPa 0,0 l/m 1,8 km/h (1 Bft) S 180 0 min 0,2 UV-I 7,8 C 13,3 C 0,0 km/h (0 Bft)
14.09.2012 09:30 11,2 C 18,8 C 11,2 C 13,3 C 13,3 C 2,1 C 80 % 86 % 55 % 1016,6 hPa 0,0 l/m 1,8 km/h (1 Bft) O-SO 112 0 min 0,2 UV-I 7,9 C 13,3 C 0,0 km/h (0 Bft)
14.09.2012 09:35 11,5 C 18,8 C 11,5 C 13,4 C 13,4 C 1,9 C 79 % 85 % 50 % 1016,6 hPa 0,0 l/m 1,4 km/h (1 Bft) O-SO 112 0 min 0,2 UV-I 8,0 C 13,4 C 9,3 km/h (2 Bft)
14.09.2012 09:40 11,7 C 18,8 C 11,6 C 13,5 C 13,5 C 1,8 C 77 % 84 % 47 % 1016,6 hPa 0,0 l/m 2,1 km/h (1 Bft) S 180 0 min 0,3 UV-I 7,8 C 13,5 C 7,2 km/h (2 Bft)
14.09.2012 09:45 12,0 C 18,8 C 11,8 C 13,5 C 13,5 C 1,5 C 77 % 84 % 39 % 1016,4 hPa 0,0 l/m 3,1 km/h (1 Bft) SW 225 0 min 0,3 UV-I 8,1 C 13,5 C 12,7 km/h (3 Bft)
14.09.2012 09:50 12,0 C 18,8 C 11,9 C 13,6 C 13,6 C 1,6 C 76 % 83 % 42 % 1016,4 hPa 0,0 l/m 2,6 km/h (1 Bft) S 180 0 min 0,4 UV-I 7,9 C 13,6 C 5,8 km/h (2 Bft)
14.09.2012 09:55 12,3 C 18,8 C 12,0 C 13,8 C 13,8 C 1,5 C 75 % 82 % 39 % 1016,4 hPa 0,0 l/m 1,9 km/h (1 Bft) S 180 0 min 0,4 UV-I 8,0 C 13,8 C 3,7 km/h (1 Bft)
14.09.2012 10:00 12,4 C 18,8 C 12,1 C 14,0 C 14,0 C 1,6 C 75 % 82 % 42 % 1016,4 hPa 0,0 l/m 2,3 km/h (1 Bft) SW 225 0 min 0,6 UV-I 8,1 C 14,0 C 2,7 km/h (1 Bft)
14.09.2012 10:05 12,5 C 18,8 C 12,1 C 14,1 C 14,1 C 1,6 C 75 % 82 % 42 % 1016,2 hPa 0,0 l/m 2,3 km/h (1 Bft) SW 225 0 min 0,6 UV-I 8,2 C 14,1 C 5,3 km/h (1 Bft)
14.09.2012 10:10 12,7 C 18,8 C 12,1 C 14,0 C 14,0 C 1,3 C 74 % 82 % 34 % 1016,2 hPa 0,0 l/m 2,4 km/h (1 Bft) SW 225 0 min 0,6 UV-I 8,2 C 14,0 C 4,2 km/h (1 Bft)
14.09.2012 10:15 12,7 C 18,8 C 12,0 C 13,6 C 13,6 C 0,9 C 73 % 81 % 24 % 1016,2 hPa 0,0 l/m 2,3 km/h (1 Bft) S 180 0 min 0,7 UV-I 8,0 C 13,6 C 8,5 km/h (2 Bft)
14.09.2012 10:20 12,7 C 18,8 C 12,1 C 13,5 C 13,5 C 0,8 C 73 % 81 % 21 % 1016,2 hPa 0,0 l/m 2,6 km/h (1 Bft) SW 225 0 min 0,8 UV-I 8,0 C 13,5 C 4,0 km/h (1 Bft)
14.09.2012 10:25 12,7 C 18,8 C 12,4 C 14,6 C 14,6 C 1,9 C 73 % 81 % 50 % 1016,2 hPa 0,0 l/m 2,7 km/h (1 Bft) SW 225 0 min 0,9 UV-I 8,0 C 14,6 C 1,9 km/h (1 Bft)
14.09.2012 10:30 12,8 C 18,8 C 12,4 C 14,5 C 14,5 C 1,7 C 73 % 81 % 45 % 1016,2 hPa 0,0 l/m 2,4 km/h (1 Bft) S-SO 157 0 min 0,9 UV-I 8,1 C 14,5 C 2,1 km/h (1 Bft)
14.09.2012 10:35 12,9 C 18,9 C 12,7 C 14,4 C 14,4 C 1,5 C 73 % 81 % 39 % 1016,2 hPa 0,0 l/m 2,1 km/h (1 Bft) O-NO 67 0 min 0,9 UV-I 8,2 C 14,4 C 0,0 km/h (0 Bft)
14.09.2012 10:40 13,1 C 18,8 C 12,8 C 14,5 C 14,5 C 1,4 C 72 % 78 % 37 % 1016,2 hPa 0,0 l/m 2,4 km/h (1 Bft) NW 315 0 min 1,0 UV-I 8,2 C 14,5 C 6,3 km/h (2 Bft)
14.09.2012 10:45 13,5 C 18,9 C 13,0 C 14,5 C 14,5 C 1,0 C 70 % 77 % 26 % 1016,1 hPa 0,0 l/m 4,2 km/h (1 Bft) S 180 0 min 1,1 UV-I 8,1 C 14,5 C 19,2 km/h (3 Bft)
14.09.2012 10:50 13,5 C 18,9 C 13,3 C 14,5 C 14,5 C 1,0 C 70 % 78 % 26 % 1016,1 hPa 0,0 l/m 4,0 km/h (1 Bft) NW 315 0 min 1,1 UV-I 8,1 C 14,5 C 2,4 km/h (1 Bft)
14.09.2012 10:55 13,9 C 18,9 C 13,3 C 14,7 C 14,7 C 0,8 C 69 % 77 % 21 % 1016,1 hPa 0,0 l/m 4,2 km/h (1 Bft) S-SO 157 0 min 1,1 UV-I 8,3 C 14,7 C 5,0 km/h (1 Bft)
14.09.2012 11:00 14,0 C 18,9 C 13,5 C 14,9 C 14,9 C 0,9 C 69 % 77 % 24 % 1016,1 hPa 0,0 l/m 4,0 km/h (1 Bft) SW 225 0 min 1,2 UV-I 8,4 C 14,9 C 3,9 km/h (1 Bft)
14.09.2012 11:05 14,2 C 18,9 C 13,5 C 15,0 C 15,0 C 0,8 C 68 % 77 % 21 % 1015,9 hPa 0,0 l/m 4,7 km/h (1 Bft) SW 225 0 min 1,2 UV-I 8,4 C 15,0 C 4,8 km/h (1 Bft)
14.09.2012 11:10 14,3 C 18,9 C 13,6 C 15,2 C 15,2 C 0,9 C 68 % 76 % 24 % 1015,9 hPa 0,0 l/m 5,8 km/h (2 Bft) W 270 0 min 1,2 UV-I 8,5 C 15,2 C 11,7 km/h (2 Bft)
14.09.2012 11:15 14,6 C 18,9 C 13,9 C 15,3 C 15,3 C 0,7 C 69 % 76 % 18 % 1015,9 hPa 0,0 l/m 5,3 km/h (1 Bft) W 270 0 min 1,3 UV-I 9,0 C 15,3 C 2,4 km/h (1 Bft)
14.09.2012 11:20 14,7 C 18,9 C 14,2 C 15,5 C 15,5 C 0,8 C 69 % 75 % 21 % 1015,9 hPa 0,0 l/m 4,8 km/h (1 Bft) S 180 0 min 1,3 UV-I 9,1 C 15,5 C 6,8 km/h (2 Bft)
14.09.2012 11:25 14,8 C 18,9 C 14,3 C 15,5 C 15,5 C 0,7 C 67 % 74 % 18 % 1015,9 hPa 0,0 l/m 4,0 km/h (1 Bft) NW 315 0 min 1,4 UV-I 8,7 C 15,5 C 3,7 km/h (1 Bft)
14.09.2012 11:30 14,9 C 18,9 C 14,5 C 15,6 C 15,6 C 0,7 C 66 % 75 % 18 % 1015,9 hPa 0,0 l/m 5,6 km/h (1 Bft) S 180 0 min 1,4 UV-I 8,6 C 15,6 C 10,8 km/h (2 Bft)
14.09.2012 11:35 15,0 C 18,9 C 14,5 C 15,7 C 15,7 C 0,7 C 65 % 73 % 18 % 1015,9 hPa 0,0 l/m 6,1 km/h (2 Bft) O-SO 112 0 min 1,4 UV-I 8,5 C 15,7 C 7,7 km/h (2 Bft)
14.09.2012 11:40 15,1 C 18,9 C 15,1 C 15,7 C 15,7 C 0,6 C 65 % 70 % 16 % 1015,9 hPa 0,0 l/m 6,3 km/h (2 Bft) SO 135 0 min 1,4 UV-I 8,6 C 15,7 C 10,9 km/h (2 Bft)
14.09.2012 11:45 15,1 C 19,0 C 15,7 C 15,7 C 15,7 C 0,6 C 65 % 70 % 16 % 1015,4 hPa 0,0 l/m 5,1 km/h (1 Bft) W-SW 247 0 min 1,5 UV-I 8,6 C 15,7 C 20,0 km/h (4 Bft)
14.09.2012 11:50 15,1 C 19,0 C 15,7 C 15,8 C 15,8 C 0,7 C 64 % 67 % 18 % 1015,4 hPa 0,0 l/m 4,8 km/h (1 Bft) SW 225 0 min 1,5 UV-I 8,3 C 15,8 C 1,8 km/h (1 Bft)
14.09.2012 11:55 15,2 C 18,9 C 15,7 C 15,9 C 15,9 C 0,7 C 64 % 68 % 18 % 1015,4 hPa 0,0 l/m 5,3 km/h (1 Bft) SW 225 0 min 1,5 UV-I 8,4 C 15,9 C 7,4 km/h (2 Bft)
14.09.2012 12:00 15,3 C 18,9 C 16,4 C 16,1 C 16,1 C 0,8 C 65 % 69 % 21 % 1015,4 hPa 0,0 l/m 4,5 km/h (1 Bft) S-SW 202 0 min 1,6 UV-I 8,8 C 16,1 C 3,4 km/h (1 Bft)
14.09.2012 12:05 15,5 C 18,9 C 17,1 C 16,3 C 16,3 C 0,8 C 64 % 66 % 21 % 1015,2 hPa 0,0 l/m 4,8 km/h (1 Bft) S 180 0 min 1,6 UV-I 8,7 C 16,3 C 9,8 km/h (2 Bft)
14.09.2012 12:10 15,7 C 18,9 C 16,9 C 16,6 C 16,6 C 0,9 C 63 % 64 % 24 % 1015,2 hPa 0,0 l/m 5,0 km/h (1 Bft) O-SO 112 0 min 1,6 UV-I 8,7 C 16,6 C 5,6 km/h (1 Bft)
14.09.2012 12:15 15,8 C 18,9 C 16,9 C 16,8 C 16,8 C 1,0 C 63 % 66 % 26 % 1015,2 hPa 0,0 l/m 5,8 km/h (2 Bft) W 270 0 min 1,6 UV-I 8,8 C 16,8 C 10,9 km/h (2 Bft)
14.09.2012 12:20 16,0 C 18,9 C 17,1 C 16,9 C 16,9 C 0,9 C 62 % 65 % 24 % 1015,2 hPa 0,0 l/m 7,9 km/h (2 Bft) W-SW 247 0 min 1,7 UV-I 8,7 C 16,9 C 21,6 km/h (4 Bft)
14.09.2012 12:25 16,1 C 18,9 C 16,7 C 18,5 C 18,5 C 2,4 C 63 % 66 % 63 % 1014,9 hPa 0,0 l/m 7,2 km/h (2 Bft) W 270 0 min 1,7 UV-I 9,1 C 18,5 C 16,4 km/h (3 Bft)
14.09.2012 12:30 16,4 C 19,0 C 16,8 C 19,5 C 19,5 C 3,1 C 62 % 65 % 82 % 1014,9 hPa 0,0 l/m 6,0 km/h (2 Bft) SW 225 0 min 1,7 UV-I 9,1 C 19,5 C 6,8 km/h (2 Bft)
14.09.2012 12:35 16,8 C 19,0 C 17,0 C 20,7 C 20,7 C 3,9 C 62 % 66 % 100 % 1014,9 hPa 0,0 l/m 5,0 km/h (1 Bft) SW 225 5 min 1,8 UV-I 9,5 C 20,7 C 2,1 km/h (1 Bft)
14.09.2012 12:41 17,4 C 19,0 C 17,5 C 21,9 C 21,9 C 4,5 C 60 % 65 % 100 % 1014,8 hPa 0,0 l/m 3,9 km/h (1 Bft) N 0 6 min 3,2 UV-I 9,6 C 21,9 C 11,1 km/h (2 Bft)
14.09.2012 12:55 17,7 C 19,0 C 18,1 C 22,2 C 22,2 C 4,5 C 59 % 62 % 100 % 1014,8 hPa 0,0 l/m 4,2 km/h (1 Bft) S 180 14 min 3,7 UV-I 9,6 C 22,2 C 4,0 km/h (1 Bft)
14.09.2012 13:00 17,9 C 19,0 C 18,1 C 22,4 C 22,4 C 4,5 C 58 % 63 % 100 % 1014,8 hPa 0,0 l/m 3,7 km/h (1 Bft) O-SO 112 5 min 3,7 UV-I 9,5 C 22,4 C 5,0 km/h (1 Bft)
14.09.2012 13:05 17,9 C 19,0 C 17,6 C 22,5 C 22,5 C 4,6 C 58 % 63 % 100 % 1014,4 hPa 0,0 l/m 4,2 km/h (1 Bft) S-SO 157 5 min 3,8 UV-I 9,5 C 22,5 C 3,4 km/h (1 Bft)
14.09.2012 13:10 17,7 C 19,1 C 17,4 C 22,5 C 22,5 C 4,8 C 58 % 64 % 100 % 1014,4 hPa 0,0 l/m 5,0 km/h (1 Bft) O-SO 112 5 min 3,8 UV-I 9,3 C 22,5 C 4,2 km/h (1 Bft)
14.09.2012 13:15 17,9 C 19,1 C 17,5 C 22,8 C 22,8 C 4,9 C 58 % 64 % 100 % 1014,4 hPa 0,0 l/m 4,2 km/h (1 Bft) SO 135 5 min 3,8 UV-I 9,5 C 22,8 C 4,8 km/h (1 Bft)
14.09.2012 13:20 18,1 C 19,1 C 17,5 C 23,0 C 23,0 C 4,9 C 58 % 64 % 100 % 1014,4 hPa 0,0 l/m 3,9 km/h (1 Bft) S-SO 157 5 min 3,6 UV-I 9,7 C 23,0 C 3,9 km/h (1 Bft)
14.09.2012 13:25 18,3 C 19,1 C 17,5 C 23,1 C 23,1 C 4,8 C 57 % 64 % 100 % 1014,2 hPa 0,0 l/m 3,2 km/h (1 Bft) O-NO 67 5 min 3,7 UV-I 9,6 C 23,1 C 1,9 km/h (1 Bft)
14.09.2012 13:30 18,3 C 19,1 C 17,5 C 23,4 C 23,4 C 5,1 C 56 % 63 % 100 % 1014,2 hPa 0,0 l/m 3,2 km/h (1 Bft) S 180 5 min 3,7 UV-I 9,4 C 23,4 C 10,3 km/h (2 Bft)
14.09.2012 13:35 18,3 C 19,1 C 17,6 C 23,5 C 23,5 C 5,2 C 57 % 62 % 100 % 1014,2 hPa 0,0 l/m 3,4 km/h (1 Bft) SW 225 5 min 3,8 UV-I 9,6 C 23,5 C 7,9 km/h (2 Bft)
14.09.2012 13:40 18,3 C 19,1 C 17,6 C 23,5 C 23,5 C 5,2 C 57 % 63 % 100 % 1014,2 hPa 0,0 l/m 3,9 km/h (1 Bft) S 180 5 min 3,7 UV-I 9,6 C 23,5 C 6,8 km/h (2 Bft)
14.09.2012 13:45 18,3 C 19,1 C 17,9 C 23,9 C 23,9 C 5,6 C 57 % 63 % 100 % 1013,8 hPa 0,0 l/m 3,1 km/h (1 Bft) S 180 5 min 3,7 UV-I 9,6 C 23,9 C 6,0 km/h (2 Bft)
14.09.2012 13:50 18,4 C 19,1 C 18,0 C 24,1 C 24,1 C 5,7 C 57 % 62 % 100 % 1013,8 hPa 0,0 l/m 2,7 km/h (1 Bft) S-SW 202 5 min 3,1 UV-I 9,7 C 24,1 C 7,7 km/h (2 Bft)
14.09.2012 13:55 18,5 C 19,1 C 18,1 C 23,8 C 23,8 C 5,3 C 56 % 61 % 100 % 1013,8 hPa 0,0 l/m 3,7 km/h (1 Bft) SO 135 5 min 2,2 UV-I 9,6 C 23,8 C 6,3 km/h (2 Bft)
14.09.2012 14:00 18,4 C 19,1 C 18,0 C 23,8 C 23,8 C 5,4 C 57 % 62 % 100 % 1013,8 hPa 0,0 l/m 3,9 km/h (1 Bft) SW 225 5 min 2,2 UV-I 9,7 C 23,8 C 3,5 km/h (1 Bft)
14.09.2012 14:05 18,4 C 19,1 C 18,3 C 23,9 C 23,9 C 5,5 C 56 % 61 % 100 % 1013,0 hPa 0,0 l/m 3,7 km/h (1 Bft) S 180 5 min 2,2 UV-I 9,5 C 23,9 C 4,2 km/h (1 Bft)
14.09.2012 14:10 18,5 C 19,1 C 18,3 C 23,9 C 23,9 C 5,4 C 56 % 61 % 100 % 1013,0 hPa 0,0 l/m 4,0 km/h (1 Bft) S 180 5 min 3,0 UV-I 9,6 C 23,9 C 3,4 km/h (1 Bft)
14.09.2012 14:15 18,7 C 19,2 C 18,2 C 24,1 C 24,1 C 5,4 C 55 % 61 % 100 % 1013,0 hPa 0,0 l/m 4,3 km/h (1 Bft) SO 135 5 min 3,1 UV-I 9,5 C 24,1 C 5,5 km/h (1 Bft)
14.09.2012 14:20 18,7 C 19,2 C 18,3 C 24,0 C 24,0 C 5,3 C 54 % 60 % 100 % 1013,0 hPa 0,0 l/m 4,3 km/h (1 Bft) S 180 5 min 2,7 UV-I 9,2 C 24,0 C 10,5 km/h (2 Bft)
14.09.2012 14:25 18,8 C 19,2 C 18,3 C 23,8 C 23,8 C 5,0 C 54 % 61 % 100 % 1013,1 hPa 0,0 l/m 4,8 km/h (1 Bft) W-SW 247 5 min 2,6 UV-I 9,3 C 23,8 C 7,2 km/h (2 Bft)
14.09.2012 14:30 18,9 C 19,2 C 18,3 C 23,8 C 23,8 C 4,9 C 55 % 61 % 100 % 1013,1 hPa 0,0 l/m 4,3 km/h (1 Bft) S 180 5 min 2,4 UV-I 9,7 C 23,8 C 0,0 km/h (0 Bft)
14.09.2012 14:35 19,1 C 19,2 C 18,5 C 24,0 C 24,0 C 4,9 C 54 % 60 % 100 % 1013,1 hPa 0,0 l/m 4,0 km/h (1 Bft) W 270 5 min 1,8 UV-I 9,6 C 24,0 C 8,9 km/h (2 Bft)
14.09.2012 14:40 19,1 C 19,3 C 18,5 C 24,0 C 24,0 C 4,9 C 54 % 60 % 100 % 1013,1 hPa 0,0 l/m 4,2 km/h (1 Bft) S 180 5 min 2,2 UV-I 9,6 C 24,0 C 7,2 km/h (2 Bft)
14.09.2012 14:45 19,2 C 19,3 C 18,7 C 24,0 C 24,0 C 4,8 C 54 % 60 % 100 % 1012,8 hPa 0,0 l/m 4,5 km/h (1 Bft) O-NO 67 5 min 2,8 UV-I 9,7 C 24,0 C 9,7 km/h (2 Bft)
14.09.2012 14:50 19,2 C 19,3 C 18,7 C 23,8 C 23,8 C 4,6 C 54 % 59 % 100 % 1012,8 hPa 0,0 l/m 4,3 km/h (1 Bft) NW 315 5 min 2,8 UV-I 9,7 C 23,8 C 3,1 km/h (1 Bft)
14.09.2012 14:55 19,5 C 19,3 C 18,7 C 23,9 C 23,9 C 4,4 C 54 % 60 % 100 % 1012,8 hPa 0,0 l/m 4,7 km/h (1 Bft) W-SW 247 5 min 2,8 UV-I 9,9 C 23,9 C 7,4 km/h (2 Bft)
14.09.2012 15:00 19,5 C 19,3 C 18,6 C 24,2 C 24,2 C 4,7 C 53 % 61 % 100 % 1012,8 hPa 0,0 l/m 4,3 km/h (1 Bft) SW 225 5 min 2,7 UV-I 9,7 C 24,2 C 11,9 km/h (2 Bft)
14.09.2012 15:05 19,7 C 19,3 C 18,9 C 24,6 C 24,6 C 4,9 C 53 % 59 % 100 % 1012,2 hPa 0,0 l/m 4,5 km/h (1 Bft) O-NO 67 5 min 2,7 UV-I 9,8 C 24,6 C 4,5 km/h (1 Bft)
14.09.2012 15:10 19,6 C 19,3 C 18,9 C 24,7 C 24,7 C 5,1 C 52 % 58 % 100 % 1012,2 hPa 0,0 l/m 4,8 km/h (1 Bft) SO 135 5 min 2,7 UV-I 9,5 C 24,7 C 4,3 km/h (1 Bft)
14.09.2012 15:15 19,6 C 19,3 C 18,7 C 23,7 C 23,7 C 4,1 C 53 % 59 % 100 % 1012,2 hPa 0,0 l/m 4,7 km/h (1 Bft) W 270 5 min 2,1 UV-I 9,8 C 23,7 C 4,5 km/h (1 Bft)
14.09.2012 15:20 19,4 C 19,4 C 18,5 C 22,7 C 22,7 C 3,3 C 53 % 58 % 87 % 1012,2 hPa 0,0 l/m 4,3 km/h (1 Bft) W 270 5 min 1,6 UV-I 9,6 C 22,7 C 2,4 km/h (1 Bft)
14.09.2012 15:25 19,2 C 19,4 C 18,3 C 21,4 C 21,4 C 2,2 C 53 % 60 % 58 % 1011,9 hPa 0,0 l/m 4,5 km/h (1 Bft) W-NW 292 0 min 1,4 UV-I 9,4 C 21,4 C 5,5 km/h (1 Bft)
14.09.2012 15:30 19,1 C 19,4 C 18,1 C 20,9 C 20,9 C 1,8 C 53 % 60 % 47 % 1011,9 hPa 0,0 l/m 5,0 km/h (1 Bft) SW 225 0 min 1,1 UV-I 9,3 C 20,9 C 8,2 km/h (2 Bft)
14.09.2012 15:35 18,8 C 19,5 C 18,0 C 20,4 C 20,4 C 1,6 C 53 % 59 % 42 % 1011,9 hPa 0,0 l/m 4,3 km/h (1 Bft) N-NO 22 0 min 0,9 UV-I 9,0 C 20,4 C 6,8 km/h (2 Bft)
14.09.2012 15:40 18,8 C 19,5 C 18,0 C 20,0 C 20,0 C 1,2 C 54 % 59 % 32 % 1011,9 hPa 0,0 l/m 3,5 km/h (1 Bft) S-SW 202 0 min 0,7 UV-I 9,3 C 20,0 C 4,7 km/h (1 Bft)
14.09.2012 15:45 18,6 C 19,5 C 17,9 C 19,6 C 19,6 C 1,0 C 54 % 60 % 26 % 1011,9 hPa 0,0 l/m 3,4 km/h (1 Bft) S 180 0 min 0,6 UV-I 9,1 C 19,6 C 3,7 km/h (1 Bft)
14.09.2012 15:50 18,6 C 19,5 C 17,9 C 19,5 C 19,5 C 0,9 C 55 % 61 % 24 % 1011,9 hPa 0,0 l/m 3,1 km/h (1 Bft) SW 225 0 min 0,5 UV-I 9,4 C 19,5 C 5,3 km/h (1 Bft)
14.09.2012 15:55 18,5 C 19,5 C 17,7 C 19,2 C 19,2 C 0,7 C 54 % 61 % 18 % 1011,9 hPa 0,0 l/m 3,1 km/h (1 Bft) W 270 0 min 0,4 UV-I 9,0 C 19,2 C 6,1 km/h (2 Bft)
14.09.2012 16:00 18,4 C 19,5 C 17,7 C 19,1 C 19,1 C 0,7 C 55 % 61 % 18 % 1011,9 hPa 0,0 l/m 3,2 km/h (1 Bft) S-SW 202 0 min 0,4 UV-I 9,2 C 19,1 C 0,0 km/h (0 Bft)
14.09.2012 16:05 18,4 C 19,6 C 17,6 C 19,1 C 19,1 C 0,7 C 55 % 62 % 18 % 1011,8 hPa 0,0 l/m 2,9 km/h (1 Bft) W-SW 247 0 min 0,4 UV-I 9,2 C 19,1 C 3,9 km/h (1 Bft)
14.09.2012 16:10 18,4 C 19,6 C 17,7 C 19,2 C 19,2 C 0,8 C 56 % 62 % 21 % 1011,8 hPa 0,0 l/m 2,6 km/h (1 Bft) S-SW 202 0 min 0,4 UV-I 9,5 C 19,2 C 4,3 km/h (1 Bft)
14.09.2012 16:15 18,5 C 19,6 C 17,8 C 19,7 C 19,7 C 1,2 C 56 % 63 % 32 % 1011,8 hPa 0,0 l/m 2,6 km/h (1 Bft) W 270 0 min 0,5 UV-I 9,6 C 19,7 C 5,3 km/h (1 Bft)
14.09.2012 16:20 18,9 C 19,6 C 18,2 C 21,0 C 21,0 C 2,1 C 56 % 63 % 55 % 1011,8 hPa 0,0 l/m 2,4 km/h (1 Bft) W-SW 247 0 min 0,9 UV-I 9,9 C 21,0 C 5,8 km/h (2 Bft)
14.09.2012 16:25 19,3 C 19,6 C 18,3 C 22,1 C 22,1 C 2,8 C 55 % 62 % 74 % 1011,8 hPa 0,0 l/m 2,7 km/h (1 Bft) O-SO 112 0 min 0,9 UV-I 10,0 C 22,1 C 2,9 km/h (1 Bft)
14.09.2012 16:30 19,4 C 19,7 C 18,2 C 22,3 C 22,3 C 2,9 C 54 % 62 % 76 % 1011,8 hPa 0,0 l/m 2,6 km/h (1 Bft) NW 315 0 min 0,9 UV-I 9,8 C 22,3 C 12,7 km/h (3 Bft)
14.09.2012 16:35 19,5 C 19,7 C 18,4 C 22,4 C 22,4 C 2,9 C 55 % 63 % 76 % 1011,8 hPa 0,0 l/m 3,9 km/h (1 Bft) W 270 0 min 0,8 UV-I 10,2 C 22,4 C 6,6 km/h (2 Bft)
14.09.2012 16:40 19,7 C 19,7 C 18,7 C 23,3 C 23,3 C 3,6 C 54 % 63 % 95 % 1011,8 hPa 0,0 l/m 5,5 km/h (1 Bft) SW 225 5 min 0,7 UV-I 10,1 C 23,3 C 6,4 km/h (2 Bft)
14.09.2012 16:45 19,6 C 19,7 C 18,6 C 23,0 C 23,0 C 3,4 C 53 % 61 % 89 % 1011,4 hPa 0,0 l/m 5,6 km/h (1 Bft) S-SW 202 5 min 0,7 UV-I 9,8 C 23,0 C 7,4 km/h (2 Bft)
14.09.2012 16:50 19,5 C 19,7 C 18,7 C 23,1 C 23,1 C 3,6 C 54 % 62 % 95 % 1011,4 hPa 0,0 l/m 5,5 km/h (1 Bft) W-SW 247 5 min 0,5 UV-I 9,9 C 23,1 C 9,7 km/h (2 Bft)
14.09.2012 16:55 19,3 C 19,8 C 18,5 C 22,4 C 22,4 C 3,1 C 53 % 59 % 82 % 1011,4 hPa 0,0 l/m 6,1 km/h (2 Bft) NW 315 0 min 0,5 UV-I 9,5 C 22,4 C 22,9 km/h (4 Bft)
14.09.2012 17:00 19,2 C 19,8 C 18,4 C 21,7 C 21,7 C 2,5 C 53 % 60 % 66 % 1011,4 hPa 0,0 l/m 6,9 km/h (2 Bft) SO 135 0 min 0,4 UV-I 9,4 C 21,7 C 22,7 km/h (4 Bft)
14.09.2012 17:05 19,1 C 19,8 C 18,3 C 20,9 C 20,9 C 1,8 C 53 % 61 % 47 % 1011,2 hPa 0,0 l/m 5,8 km/h (2 Bft) SW 225 0 min 0,4 UV-I 9,3 C 20,9 C 6,3 km/h (2 Bft)
14.09.2012 17:10 19,1 C 19,8 C 18,5 C 20,9 C 20,9 C 1,8 C 54 % 60 % 47 % 1011,2 hPa 0,0 l/m 4,5 km/h (1 Bft) W-SW 247 0 min 0,3 UV-I 9,6 C 20,9 C 13,2 km/h (3 Bft)
14.09.2012 17:15 19,0 C 19,8 C 18,4 C 21,4 C 21,4 C 2,4 C 53 % 60 % 63 % 1011,2 hPa 0,0 l/m 4,7 km/h (1 Bft) S 180 0 min 0,3 UV-I 9,2 C 21,4 C 4,8 km/h (1 Bft)
14.09.2012 17:20 18,9 C 19,8 C 18,2 C 20,9 C 20,9 C 2,0 C 55 % 60 % 53 % 1011,2 hPa 0,0 l/m 4,2 km/h (1 Bft) W 270 0 min 0,3 UV-I 9,7 C 20,9 C 0,0 km/h (0 Bft)
14.09.2012 17:25 18,8 C 19,8 C 18,3 C 20,8 C 20,8 C 2,0 C 55 % 60 % 53 % 1010,6 hPa 0,0 l/m 3,2 km/h (1 Bft) S 180 0 min 0,2 UV-I 9,6 C 20,8 C 1,9 km/h (1 Bft)
14.09.2012 17:30 18,9 C 19,9 C 18,4 C 21,4 C 21,4 C 2,5 C 55 % 60 % 66 % 1010,6 hPa 0,0 l/m 2,9 km/h (1 Bft) SO 135 0 min 0,2 UV-I 9,7 C 21,4 C 9,5 km/h (2 Bft)
14.09.2012 17:35 19,0 C 19,9 C 18,5 C 21,8 C 21,8 C 2,8 C 55 % 60 % 74 % 1010,6 hPa 0,0 l/m 2,7 km/h (1 Bft) S 180 5 min 0,1 UV-I 9,8 C 21,8 C 3,5 km/h (1 Bft)
14.09.2012 17:40 19,1 C 19,9 C 18,6 C 22,5 C 22,5 C 3,4 C 55 % 61 % 89 % 1010,6 hPa 0,0 l/m 2,9 km/h (1 Bft) S-SW 202 5 min 0,1 UV-I 9,8 C 22,5 C 7,4 km/h (2 Bft)
14.09.2012 17:45 19,1 C 19,9 C 18,7 C 23,3 C 23,3 C 4,2 C 56 % 61 % 100 % 1010,4 hPa 0,0 l/m 2,7 km/h (1 Bft) O-NO 67 5 min 0,1 UV-I 10,1 C 23,3 C 3,2 km/h (1 Bft)
14.09.2012 17:50 19,1 C 19,9 C 18,7 C 23,5 C 23,5 C 4,4 C 56 % 61 % 100 % 1010,4 hPa 0,0 l/m 2,4 km/h (1 Bft) N-NW 337 5 min 0,1 UV-I 10,1 C 23,5 C 3,1 km/h (1 Bft)
14.09.2012 17:55 19,1 C 20,0 C 18,7 C 23,4 C 23,4 C 4,3 C 54 % 60 % 100 % 1010,4 hPa 0,0 l/m 3,7 km/h (1 Bft) W 270 5 min 0,0 UV-I 9,6 C 23,4 C 17,1 km/h (3 Bft)
14.09.2012 18:00 19,1 C 20,0 C 18,6 C 23,0 C 23,0 C 3,9 C 54 % 59 % 100 % 1010,4 hPa 0,0 l/m 5,0 km/h (1 Bft) SW 225 5 min 0,0 UV-I 9,6 C 23,0 C 13,5 km/h (3 Bft)
14.09.2012 18:05 18,9 C 20,0 C 18,4 C 22,4 C 22,4 C 3,5 C 54 % 59 % 92 % 1009,9 hPa 0,0 l/m 6,1 km/h (2 Bft) SW 225 5 min 0,0 UV-I 9,4 C 22,4 C 6,1 km/h (2 Bft)
14.09.2012 18:10 18,8 C 20,0 C 18,5 C 22,1 C 22,1 C 3,3 C 54 % 59 % 87 % 1009,9 hPa 0,0 l/m 5,1 km/h (1 Bft) W-SW 247 5 min 0,0 UV-I 9,3 C 22,1 C 1,9 km/h (1 Bft)
14.09.2012 18:15 18,8 C 20,0 C 18,3 C 21,6 C 21,6 C 2,8 C 55 % 60 % 74 % 1009,9 hPa 0,0 l/m 3,7 km/h (1 Bft) SO 135 5 min 0,0 UV-I 9,6 C 21,6 C 3,7 km/h (1 Bft)
14.09.2012 18:20 18,6 C 20,0 C 18,1 C 20,7 C 20,7 C 2,1 C 54 % 59 % 55 % 1009,9 hPa 0,0 l/m 4,2 km/h (1 Bft) S 180 5 min 0,0 UV-I 9,1 C 20,7 C 3,7 km/h (1 Bft)
14.09.2012 18:25 18,5 C 20,1 C 18,1 C 20,4 C 20,4 C 1,9 C 54 % 60 % 50 % 1010,0 hPa 0,0 l/m 5,3 km/h (1 Bft) S-SO 157 5 min 0,0 UV-I 9,0 C 20,4 C 7,7 km/h (2 Bft)
14.09.2012 18:30 18,4 C 20,1 C 18,1 C 20,5 C 20,5 C 2,1 C 55 % 59 % 55 % 1010,0 hPa 0,0 l/m 5,6 km/h (1 Bft) SO 135 5 min 0,0 UV-I 9,2 C 20,5 C 6,4 km/h (2 Bft)
14.09.2012 18:35 18,4 C 20,1 C 18,0 C 20,5 C 20,5 C 2,1 C 55 % 60 % 55 % 1010,0 hPa 0,0 l/m 4,3 km/h (1 Bft) SO 135 5 min 0,0 UV-I 9,2 C 20,5 C 3,4 km/h (1 Bft)
14.09.2012 18:41 18,1 C 20,1 C 17,6 C 19,6 C 19,6 C 1,5 C 55 % 61 % 39 % 1010,2 hPa 0,0 l/m 5,0 km/h (1 Bft) N 0 6 min 0,0 UV-I 8,9 C 19,6 C 5,0 km/h (1 Bft)
14.09.2012 18:55 17,9 C 20,1 C 17,5 C 18,9 C 18,9 C 1,0 C 56 % 62 % 26 % 1010,2 hPa 0,0 l/m 5,0 km/h (1 Bft) W-SW 247 14 min 0,0 UV-I 9,0 C 18,9 C 5,6 km/h (1 Bft)
14.09.2012 19:00 17,9 C 20,1 C 17,3 C 18,7 C 18,7 C 0,8 C 56 % 63 % 21 % 1010,2 hPa 0,0 l/m 4,8 km/h (1 Bft) W 270 5 min 0,0 UV-I 9,0 C 18,7 C 8,7 km/h (2 Bft)
14.09.2012 19:05 17,7 C 20,1 C 17,1 C 18,0 C 18,0 C 0,3 C 57 % 64 % 8 % 1010,2 hPa 0,0 l/m 4,8 km/h (1 Bft) SW 225 0 min 0,0 UV-I 9,1 C 18,0 C 6,3 km/h (2 Bft)
14.09.2012 19:10 17,7 C 20,1 C 17,1 C 17,7 C 17,6 C 0,0 C 57 % 64 % 0 % 1010,2 hPa 0,0 l/m 5,1 km/h (1 Bft) SW 225 0 min 0,0 UV-I 9,1 C 17,6 C 10,1 km/h (2 Bft)
14.09.2012 19:15 17,4 C 20,1 C 16,8 C 17,3 C 17,2 C 0,0 C 57 % 65 % 0 % 1010,2 hPa 0,0 l/m 5,8 km/h (2 Bft) W-SW 247 0 min 0,0 UV-I 8,8 C 17,2 C 9,0 km/h (2 Bft)
14.09.2012 19:20 17,4 C 20,2 C 16,7 C 17,3 C 17,0 C 0,0 C 58 % 65 % 0 % 1010,2 hPa 0,0 l/m 6,3 km/h (2 Bft) W-SW 247 0 min 0,0 UV-I 9,1 C 17,0 C 7,1 km/h (2 Bft)
14.09.2012 19:25 17,2 C 20,2 C 16,6 C 17,1 C 16,9 C 0,0 C 58 % 66 % 0 % 1010,6 hPa 0,0 l/m 6,4 km/h (2 Bft) SW 225 0 min 0,0 UV-I 8,9 C 16,9 C 8,9 km/h (2 Bft)
14.09.2012 19:30 17,3 C 20,2 C 16,5 C 17,2 C 16,9 C 0,0 C 58 % 66 % 0 % 1010,6 hPa 0,0 l/m 6,1 km/h (2 Bft) O 90 0 min 0,0 UV-I 9,0 C 16,9 C 7,2 km/h (2 Bft)
14.09.2012 19:35 17,2 C 20,2 C 16,4 C 17,1 C 16,9 C 0,0 C 58 % 67 % 0 % 1010,6 hPa 0,0 l/m 4,8 km/h (1 Bft) N-NW 337 0 min 0,0 UV-I 8,9 C 16,9 C 2,4 km/h (1 Bft)
14.09.2012 19:40 17,1 C 20,2 C 16,4 C 17,0 C 16,8 C 0,0 C 59 % 67 % 0 % 1010,6 hPa 0,0 l/m 3,7 km/h (1 Bft) W-SW 247 0 min 0,0 UV-I 9,0 C 16,8 C 2,3 km/h (1 Bft)
14.09.2012 19:45 17,1 C 20,2 C 16,5 C 17,0 C 16,8 C 0,0 C 59 % 66 % 0 % 1010,9 hPa 0,0 l/m 2,7 km/h (1 Bft) SW 225 0 min 0,0 UV-I 9,0 C 16,8 C 4,0 km/h (1 Bft)
14.09.2012 19:50 17,1 C 20,2 C 16,4 C 17,0 C 16,7 C 0,0 C 59 % 67 % 0 % 1010,9 hPa 0,0 l/m 4,0 km/h (1 Bft) W-SW 247 0 min 0,0 UV-I 9,0 C 16,7 C 10,0 km/h (2 Bft)
14.09.2012 19:55 17,0 C 20,2 C 16,3 C 16,9 C 16,8 C 0,0 C 59 % 67 % 0 % 1010,9 hPa 0,0 l/m 5,5 km/h (1 Bft) SW 225 0 min 0,0 UV-I 8,9 C 16,8 C 5,8 km/h (2 Bft)
14.09.2012 20:00 16,9 C 20,3 C 16,3 C 16,8 C 16,7 C 0,0 C 59 % 67 % 0 % 1010,9 hPa 0,0 l/m 5,8 km/h (2 Bft) W 270 0 min 0,0 UV-I 8,8 C 16,7 C 7,6 km/h (2 Bft)
14.09.2012 20:05 16,9 C 20,3 C 16,1 C 16,8 C 16,6 C 0,0 C 59 % 67 % 0 % 1011,4 hPa 0,0 l/m 5,6 km/h (1 Bft) S-SO 157 0 min 0,0 UV-I 8,8 C 16,6 C 12,4 km/h (3 Bft)
14.09.2012 20:10 16,9 C 20,4 C 16,1 C 16,8 C 16,7 C 0,0 C 60 % 67 % 0 % 1011,4 hPa 0,0 l/m 5,1 km/h (1 Bft) SW 225 0 min 0,0 UV-I 9,1 C 16,7 C 6,1 km/h (2 Bft)
14.09.2012 20:15 16,8 C 20,4 C 16,1 C 16,8 C 16,7 C 0,0 C 60 % 67 % 0 % 1011,4 hPa 0,0 l/m 4,7 km/h (1 Bft) O-NO 67 0 min 0,0 UV-I 9,0 C 16,7 C 3,1 km/h (1 Bft)
14.09.2012 20:20 16,8 C 20,4 C 16,1 C 16,8 C 16,7 C 0,0 C 60 % 67 % 0 % 1011,4 hPa 0,0 l/m 5,0 km/h (1 Bft) W-SW 247 0 min 0,0 UV-I 9,0 C 16,7 C 14,3 km/h (3 Bft)
14.09.2012 20:25 16,8 C 20,4 C 16,2 C 16,8 C 16,8 C 0,0 C 60 % 67 % 0 % 1010,8 hPa 0,0 l/m 5,1 km/h (1 Bft) W-SW 247 0 min 0,0 UV-I 9,0 C 16,8 C 5,8 km/h (2 Bft)
14.09.2012 20:30 16,9 C 20,4 C 16,1 C 16,9 C 16,8 C 0,0 C 60 % 67 % 0 % 1010,8 hPa 0,0 l/m 4,5 km/h (1 Bft) S 180 0 min 0,0 UV-I 9,1 C 16,8 C 4,2 km/h (1 Bft)
14.09.2012 20:35 16,8 C 20,4 C 16,1 C 16,8 C 16,7 C 0,0 C 61 % 67 % 0 % 1010,8 hPa 0,0 l/m 3,4 km/h (1 Bft) O-NO 67 0 min 0,0 UV-I 9,2 C 16,7 C 2,1 km/h (1 Bft)
14.09.2012 20:40 16,9 C 20,4 C 16,2 C 16,8 C 16,7 C 0,0 C 61 % 67 % 0 % 1010,8 hPa 0,0 l/m 2,7 km/h (1 Bft) W-SW 247 0 min 0,0 UV-I 9,3 C 16,7 C 5,1 km/h (1 Bft)
14.09.2012 20:45 16,8 C 20,4 C 16,2 C 16,8 C 16,7 C 0,0 C 61 % 67 % 0 % 1010,8 hPa 0,0 l/m 2,3 km/h (1 Bft) W-SW 247 0 min 0,0 UV-I 9,2 C 16,7 C 4,3 km/h (1 Bft)
14.09.2012 20:50 16,7 C 20,4 C 16,1 C 16,7 C 16,7 C 0,0 C 61 % 67 % 0 % 1010,8 hPa 0,0 l/m 2,1 km/h (1 Bft) S-SO 157 0 min 0,0 UV-I 9,1 C 16,7 C 1,8 km/h (1 Bft)
14.09.2012 20:55 16,7 C 20,4 C 16,1 C 16,6 C 16,5 C 0,0 C 62 % 67 % 0 % 1010,8 hPa 0,0 l/m 1,6 km/h (1 Bft) O-SO 112 0 min 0,0 UV-I 9,4 C 16,5 C 5,0 km/h (1 Bft)
14.09.2012 21:00 16,7 C 20,4 C 16,1 C 16,6 C 16,5 C 0,0 C 62 % 67 % 0 % 1010,8 hPa 0,0 l/m 1,4 km/h (1 Bft) S-SW 202 0 min 0,0 UV-I 9,4 C 16,5 C 0,0 km/h (0 Bft)
14.09.2012 21:05 16,7 C 20,4 C 16,1 C 16,6 C 16,5 C 0,0 C 62 % 67 % 0 % 1010,8 hPa 0,0 l/m 2,4 km/h (1 Bft) SO 135 0 min 0,0 UV-I 9,4 C 16,5 C 1,6 km/h (1 Bft)
14.09.2012 21:10 16,7 C 20,4 C 16,1 C 16,6 C 16,5 C 0,0 C 62 % 68 % 0 % 1010,8 hPa 0,0 l/m 2,6 km/h (1 Bft) W 270 0 min 0,0 UV-I 9,4 C 16,5 C 6,3 km/h (2 Bft)
14.09.2012 21:15 16,6 C 20,4 C 16,1 C 16,6 C 16,5 C 0,0 C 63 % 69 % 0 % 1010,8 hPa 0,0 l/m 3,1 km/h (1 Bft) SW 225 0 min 0,0 UV-I 9,5 C 16,5 C 6,4 km/h (2 Bft)
14.09.2012 21:20 16,6 C 20,4 C 16,0 C 16,6 C 16,5 C 0,0 C 63 % 69 % 0 % 1010,8 hPa 0,0 l/m 4,7 km/h (1 Bft) NW 315 0 min 0,0 UV-I 9,5 C 16,5 C 7,6 km/h (2 Bft)
14.09.2012 21:25 16,7 C 20,4 C 16,0 C 16,7 C 16,6 C 0,0 C 63 % 69 % 0 % 1010,8 hPa 0,0 l/m 5,8 km/h (2 Bft) NO 45 0 min 0,0 UV-I 9,6 C 16,6 C 5,3 km/h (1 Bft)
14.09.2012 21:30 16,6 C 20,4 C 16,0 C 16,6 C 16,5 C 0,0 C 63 % 69 % 0 % 1010,8 hPa 0,0 l/m 5,1 km/h (1 Bft) SW 225 0 min 0,0 UV-I 9,5 C 16,5 C 6,3 km/h (2 Bft)
14.09.2012 21:35 16,5 C 20,4 C 16,0 C 16,5 C 16,5 C 0,0 C 63 % 69 % 0 % 1010,8 hPa 0,0 l/m 3,4 km/h (1 Bft) W-SW 247 0 min 0,0 UV-I 9,4 C 16,5 C 6,3 km/h (2 Bft)
14.09.2012 21:40 16,5 C 20,4 C 16,0 C 16,5 C 16,5 C 0,0 C 63 % 69 % 0 % 1010,8 hPa 0,0 l/m 4,0 km/h (1 Bft) W 270 0 min 0,0 UV-I 9,4 C 16,5 C 6,1 km/h (2 Bft)
14.09.2012 21:45 16,5 C 20,4 C 15,9 C 16,5 C 16,5 C 0,0 C 63 % 70 % 0 % 1010,9 hPa 0,0 l/m 5,3 km/h (1 Bft) S-SW 202 0 min 0,0 UV-I 9,4 C 16,5 C 4,0 km/h (1 Bft)
14.09.2012 21:50 16,5 C 20,4 C 15,9 C 16,5 C 16,5 C 0,0 C 63 % 70 % 0 % 1010,9 hPa 0,0 l/m 5,6 km/h (1 Bft) SW 225 0 min 0,0 UV-I 9,4 C 16,5 C 5,0 km/h (1 Bft)
14.09.2012 21:55 16,5 C 20,4 C 15,9 C 16,5 C 16,5 C 0,0 C 63 % 70 % 0 % 1010,9 hPa 0,0 l/m 5,5 km/h (1 Bft) S 180 0 min 0,0 UV-I 9,4 C 16,5 C 4,0 km/h (1 Bft)
14.09.2012 22:00 16,5 C 20,4 C 15,9 C 16,5 C 16,5 C 0,0 C 63 % 70 % 0 % 1010,9 hPa 0,0 l/m 5,0 km/h (1 Bft) NW 315 0 min 0,0 UV-I 9,4 C 16,5 C 9,2 km/h (2 Bft)
14.09.2012 22:05 16,4 C 20,4 C 15,9 C 16,4 C 16,4 C 0,0 C 64 % 71 % 0 % 1011,1 hPa 0,0 l/m 3,5 km/h (1 Bft) S 180 0 min 0,0 UV-I 9,6 C 16,4 C 2,3 km/h (1 Bft)
14.09.2012 22:10 16,5 C 20,4 C 15,8 C 16,4 C 16,3 C 0,0 C 64 % 71 % 0 % 1011,1 hPa 0,0 l/m 2,3 km/h (1 Bft) SO 135 0 min 0,0 UV-I 9,7 C 16,3 C 0,0 km/h (0 Bft)
14.09.2012 22:15 16,3 C 20,4 C 15,7 C 16,2 C 16,0 C 0,0 C 64 % 70 % 0 % 1011,1 hPa 0,0 l/m 1,1 km/h (1 Bft) NW 315 0 min 0,0 UV-I 9,5 C 16,0 C 0,0 km/h (0 Bft)
14.09.2012 22:20 16,3 C 20,4 C 15,7 C 16,2 C 15,9 C 0,0 C 65 % 71 % 0 % 1011,1 hPa 0,0 l/m 1,1 km/h (1 Bft) O 90 0 min 0,0 UV-I 9,7 C 15,9 C 3,4 km/h (1 Bft)
14.09.2012 22:25 16,1 C 20,4 C 15,6 C 16,0 C 15,7 C 0,0 C 65 % 71 % 0 % 1010,7 hPa 0,0 l/m 1,3 km/h (1 Bft) SW 225 0 min 0,0 UV-I 9,5 C 15,7 C 3,7 km/h (1 Bft)
14.09.2012 22:30 16,1 C 20,4 C 15,5 C 15,9 C 15,6 C 0,0 C 65 % 72 % 0 % 1010,7 hPa 0,0 l/m 1,3 km/h (1 Bft) S 180 0 min 0,0 UV-I 9,5 C 15,6 C 5,1 km/h (1 Bft)
14.09.2012 22:35 15,9 C 20,4 C 15,3 C 15,7 C 15,2 C 0,0 C 66 % 72 % 0 % 1010,7 hPa 0,0 l/m 2,4 km/h (1 Bft) S-SW 202 0 min 0,0 UV-I 9,6 C 15,2 C 6,6 km/h (2 Bft)
14.09.2012 22:40 15,8 C 20,4 C 15,2 C 15,6 C 15,1 C 0,0 C 66 % 73 % 0 % 1010,7 hPa 0,0 l/m 4,0 km/h (1 Bft) W-SW 247 0 min 0,0 UV-I 9,5 C 15,1 C 8,0 km/h (2 Bft)
14.09.2012 22:45 15,7 C 20,5 C 15,3 C 15,5 C 15,1 C 0,0 C 66 % 73 % 0 % 1010,8 hPa 0,0 l/m 5,0 km/h (1 Bft) S-SW 202 0 min 0,0 UV-I 9,4 C 15,1 C 4,5 km/h (1 Bft)
14.09.2012 22:50 15,6 C 20,5 C 15,2 C 15,5 C 15,2 C 0,0 C 67 % 74 % 0 % 1010,8 hPa 0,0 l/m 5,3 km/h (1 Bft) W-SW 247 0 min 0,0 UV-I 9,5 C 15,2 C 6,6 km/h (2 Bft)
14.09.2012 22:55 15,6 C 20,6 C 15,3 C 15,5 C 15,4 C 0,0 C 67 % 74 % 0 % 1010,8 hPa 0,0 l/m 5,0 km/h (1 Bft) W-SW 247 0 min 0,0 UV-I 9,5 C 15,4 C 6,1 km/h (2 Bft)
14.09.2012 23:00 15,7 C 20,6 C 15,2 C 15,6 C 15,4 C 0,0 C 67 % 74 % 0 % 1010,8 hPa 0,0 l/m 5,5 km/h (1 Bft) W-SW 247 0 min 0,0 UV-I 9,6 C 15,4 C 9,2 km/h (2 Bft)
14.09.2012 23:05 15,6 C 20,6 C 15,1 C 15,6 C 15,5 C 0,0 C 68 % 74 % 0 % 1011,1 hPa 0,0 l/m 6,8 km/h (2 Bft) S-SW 202 0 min 0,0 UV-I 9,7 C 15,5 C 11,4 km/h (2 Bft)
14.09.2012 23:10 15,6 C 20,6 C 15,1 C 15,5 C 15,3 C 0,0 C 68 % 74 % 0 % 1011,1 hPa 0,0 l/m 7,7 km/h (2 Bft) W 270 0 min 0,0 UV-I 9,7 C 15,3 C 13,2 km/h (3 Bft)
14.09.2012 23:15 15,5 C 20,6 C 15,0 C 15,4 C 15,1 C 0,0 C 68 % 74 % 0 % 1011,1 hPa 0,0 l/m 8,0 km/h (2 Bft) W-SW 247 0 min 0,0 UV-I 9,6 C 15,1 C 12,2 km/h (2 Bft)
14.09.2012 23:20 15,5 C 20,6 C 15,1 C 15,4 C 15,2 C 0,0 C 67 % 74 % 0 % 1011,1 hPa 0,0 l/m 7,7 km/h (2 Bft) W-SW 247 0 min 0,0 UV-I 9,4 C 15,2 C 8,2 km/h (2 Bft)
14.09.2012 23:25 15,6 C 20,6 C 15,1 C 15,5 C 15,2 C 0,0 C 67 % 74 % 0 % 1011,2 hPa 0,0 l/m 8,4 km/h (2 Bft) S-SW 202 0 min 0,0 UV-I 9,5 C 15,2 C 7,9 km/h (2 Bft)
14.09.2012 23:30 15,6 C 20,6 C 15,1 C 15,5 C 15,3 C 0,0 C 67 % 74 % 0 % 1011,2 hPa 0,0 l/m 8,5 km/h (2 Bft) W-NW 292 0 min 0,0 UV-I 9,5 C 15,3 C 5,8 km/h (2 Bft)
14.09.2012 23:35 15,5 C 20,6 C 15,1 C 15,4 C 15,2 C 0,0 C 67 % 74 % 0 % 1011,2 hPa 0,0 l/m 8,0 km/h (2 Bft) W-SW 247 0 min 0,0 UV-I 9,4 C 15,2 C 11,6 km/h (2 Bft)
14.09.2012 23:40 15,5 C 20,6 C 15,1 C 15,4 C 15,1 C 0,0 C 68 % 74 % 0 % 1011,2 hPa 0,0 l/m 7,9 km/h (2 Bft) W 270 0 min 0,0 UV-I 9,6 C 15,1 C 20,3 km/h (4 Bft)
14.09.2012 23:45 15,5 C 20,6 C 15,0 C 15,4 C 15,2 C 0,0 C 68 % 74 % 0 % 1011,1 hPa 0,0 l/m 9,2 km/h (2 Bft) W-SW 247 0 min 0,0 UV-I 9,6 C 15,2 C 12,2 km/h (2 Bft)
14.09.2012 23:50 15,5 C 20,6 C 15,1 C 15,4 C 15,2 C 0,0 C 68 % 75 % 0 % 1011,1 hPa 0,0 l/m 9,2 km/h (2 Bft) SW 225 0 min 0,0 UV-I 9,6 C 15,2 C 9,7 km/h (2 Bft)
14.09.2012 23:55 15,5 C 20,6 C 15,1 C 15,4 C 15,2 C 0,0 C 69 % 75 % 0 % 1011,1 hPa 0,0 l/m 7,2 km/h (2 Bft) S-SW 202 0 min 0,0 UV-I 9,8 C 15,2 C 10,8 km/h (2 Bft)
_ Min-Zeit 05:30 09:25 07:10 05:30 05:35 00:00 15:10 15:10 00:00 18:05 - 00:00 - - - 00:00 05:05 05:35 00:00
Minimum _ 3,9 C 18,8 C 5,7 C 3,8 C 3,6 C 0,0 C 52 % 58 % 0 % 1009,9 hPa - 0,0 km/h (0 Bft) - - - 0,0 UV-I 2,4 C 3,6 C 0,0 km/h (0 Bft)
_ Max-Zeit 15:05 22:55 15:05 15:10 15:10 08:15 07:50 05:50 07:40 00:55 00:00 23:45 - - 12:55 13:05 16:35 15:10 16:55
Maximum _ 19,7 C 20,6 C 18,9 C 24,7 C 24,7 C 9,1 C 93 % 92 % 100 % 1019,2 hPa 0,0 l/m 9,2 km/h
W-SW (2 Bft)
- - 14 min 3,8 UV-I 10,2 C 24,7 C 22,9 km/h
NW (4 Bft)
Durchschnitt _ 12,5 C 19,7 C 12,8 C 14,0 C 13,9 C 1,5 C 72 % 76 % 33 % 1014,8 hPa #0,0 l/m 2,7 km/h (1 Bft) SW - #6:25 h 1,4 UV-I 7,2 C 13,9 C 4,2 km/h (1 Bft)
2012 www.wetterstation-wechselburg.de